Hourly Data Report for November 06, 2017

All times are specified in Local Standard Time (LST). Add 1 hour to adjust for Daylight Saving Time where and when it is observed.

GREENWOOD A
NOVA SCOTIA

44°59'00.000" N
64°55'00.000" W
28.00 m
8202000
71397
YZX

Download Data

Hourly Data (November 2017)
Hourly Data Report for November 6, 2017
Temp Definition
°C
Dew Point Temp Definition
°C
Rel Hum Definition
%
Wind Dir Definition
10's deg

Wind Spd Definition
km/h
Visibility Definition
km
Stn Press Definition
kPa
Hmdx Definition


Wind Chill Definition


Weather Definition


TIME
00:00 12.0 8.7 80 16 33 24.1 102.14     Mostly Cloudy
01:00 12.3 9.4 82 15 24 24.1 102.05     Mostly Cloudy
02:00 13.0 9.6 80 16 19 24.1 101.96     Mostly Cloudy
03:00 13.6 10.3 80 16 26 24.1 101.82     Cloudy
04:00 14.2 11.1 82 17 28 24.1 101.60     Mostly Cloudy
05:00 15.0 12.3 84 17 28 24.1 101.50     Rain Showers
06:00 15.8 13.0 83 19 20 19.3 101.39     Cloudy
07:00 16.3 13.9 86 16 37 16.1 101.26     Rain Showers
08:00 17.5 14.6 83 19 24 16.1 101.26     Mostly Cloudy
09:00 18.8 15.2 80 19 30 24.1 101.13     Mostly Cloudy
10:00 20.0 16.0 78 20 30 24.1 101.06 25   Mostly Cloudy
11:00 20.3 16.8 80 20 24 19.3 100.98 25   Mostly Cloudy
12:00 21.2 17.1 77 21 26 24.1 100.84 27   Mostly Cloudy
13:00 23.0 16.2 66 21 43 24.1 100.73 28   Mostly Cloudy
14:00 24.2 14.6 55 22 37 24.1 100.67 28   Mostly Cloudy
15:00 21.2 14.3 65 22 41 24.1 100.71 25   Mostly Cloudy
16:00 20.0 14.1 69 22 30 24.1 100.70     Mostly Cloudy
17:00 19.1 14.2 73 21 22 24.1 100.65     Mostly Cloudy
18:00 18.8 14.4 76 22 24 24.1 100.63     Mostly Cloudy
19:00 18.4 14.4 78 23 26 24.1 100.65     Rain Showers
20:00 18.2 14.9 81 22 20 16.1 100.59     Rain Showers
21:00 17.8 15.1 84 22 17 16.1 100.54     Rain
22:00 17.9 15.2 84 22 15 12.9 100.45     Rain
23:00 16.2 15.6 96 25 32 6.4 100.46     Rain,Fog

Notes on Data Quality.

Legend

  • E = Estimated
  • M = Missing
  • NA = Not Available
  • ‡ = Partner data that is not subject to review by the National Climate Archives
Date modified: